Regional Weather Roundup
Issued by NWS Sterling, VA

Home | Current Version | Previous Version | Text Only | Print | Product List | Glossary On
Versions: 1 2 3 4 5 6 7 8 9 10 11 12 13 14 15 16 17 18 19 20 21 22 23 24 25 26 27 28 29 30 31 32 33 34 35 36 37 38 39 40 41 42 43 44 45 46 47 48 49 50
000
ASUS41 KLWX 251610
RWRLWX

REGIONAL WEATHER ROUNDUP
NATIONAL WEATHER SERVICE BALTIMORE MD/WASHINGTON DC
1200 PM EDT SAT APR 25 2015

Note: "FAIR" indicates few or no clouds below 12,000 feet
with no significant weather and/or obstructions to visibility.
 TC=TEMPERATURE CELSIUS

 * =Non NWS site. Station does not report precipitation (e.g. rain,
    snow, etc.), thunder, or fog.

DCZ001-MDZ009-015-VAZ040>042-051-053>054-251700-
WASHINGTON METRO

CITY           SKY/WX    TMP DP  RH WIND       PRES   REMARKS
WASHINGTON NAT CLOUDY    51  31  46 S8        29.94F
DULLES         CLOUDY    48  14  25 CALM      29.93F
ANDREWS AFB    CLOUDY    49  30  49 S7        29.92F
FT BELVOIR     CLOUDY    49  30  48 E5        29.94F
QUANTICO       CLOUDY    50  29  44 S3        29.95F
COLLEGE PARK*  CLOUDY    50  28  43 S5        29.94F
LEESBURG*      CLOUDY    48  27  43 S5        29.93F
MANASSAS*      CLOUDY    48  16  27 CALM      29.94F
GAITHERSBURG*  CLOUDY    48  19  32 SW6       29.96F

$$

MDZ006>007-011-014-251700-
BALTIMORE METRO

CITY           SKY/WX    TMP DP  RH WIND       PRES   REMARKS
BWI AIRPORT    CLOUDY    48  28  46 SW6       29.93F
MD SCIENCE CTR   N/A     47  21  35 MISG      29.94F
MARTIN STATE   CLOUDY    46  28  49 W5        29.96F
ANNAPOLIS      CLOUDY    49  29  46 VRB3      29.93F
FORT MEADE*    CLOUDY    48  30  49 SW6       29.96F

$$

MDZ012-015-019>023-251700-
MARYLAND EASTERN SHORE

CITY           SKY/WX    TMP DP  RH WIND       PRES   REMARKS
OCEAN CITY     CLOUDY    48  27  44 W5        29.96F
SALISBURY      CLOUDY    47  27  45 VRB3      29.95F
BAY BRIDGE AP*   N/A    N/A N/A N/A S8        29.94F
CAMBRIDGE*     CLOUDY    48  28  46 SE7       29.95F
EASTON*        MOSUNNY   48  30  49 S7        29.98

$$

MDZ017>025-251700-
SOUTHERN MARYLAND

CITY           SKY/WX    TMP DP  RH WIND       PRES   REMARKS
PATUXENT RIVER CLOUDY    47  34  60 S7        29.95F
ST INIGOES     LGT RAIN  48  36  63 E6        29.94F
LEONARDTOWN*   CLOUDY    46  34  61 SE6       29.96F

$$

MDZ003>005-251700-
NORTH CENTRAL MARYLAND

CITY           SKY/WX    TMP DP  RH WIND       PRES   REMARKS
FREDERICK*     NOT AVBL
HAGERSTOWN APT CLOUDY    45  22  40 VRB3      29.91F
WESTMINSTER*   CLOUDY    43  18  36 CALM      29.91F

$$

MDZ501>502-251700-
WESTERN MARYLAND

CITY           SKY/WX    TMP DP  RH WIND       PRES   REMARKS
OAKLAND*       CLOUDY    39  28  65 E7        29.85S
CUMBERLAND*    CLOUDY    43  30  61 CALM      29.96F

$$

VAZ025>031-251700-
SHENANDOAH VALLEY

CITY           SKY/WX    TMP DP  RH WIND       PRES   REMARKS
WINCHESTER*    CLOUDY    46  19  34 CALM      29.91F
FRONT ROYAL*   CLOUDY    46  21  36 CALM      29.90F
LURAY*         LGT RAIN  48  27  43 NE7       29.89F
NEW MARKET*    CLOUDY    47  24  40 NE3       29.88F
STAUNTON*      LGT RAIN  48  32  53 S5        29.92S
WAYNESBORO*    CLOUDY    43  30  60 SE5       29.90F

$$

WVZ021-048>050-054>055-251700-
EASTERN WEST VIRGINIA PANHANDLE

CITY           SKY/WX    TMP DP  RH WIND       PRES   REMARKS
MARTINSBURG    CLOUDY    47  22  37 CALM      29.92F
PETERSBURG*    CLOUDY    45  22  40 CALM      29.92F

$$

VAZ036>039-050-251700-
CENTRAL FOOTHILLS

CITY           SKY/WX    TMP DP  RH WIND       PRES   REMARKS
CHARLOTTESVILL LGT RAIN  49  25  39 S3        29.92F
CULPEPER*      LGT RAIN  48  21  34 CALM      29.94F
ORANGE*        CLOUDY    50  23  34 NE3       29.94F
GORDONSVILLE*  CLOUDY    49  23  36 MISG      29.92F
WARRENTON*     DRIZZLE   49  23  37 SE3       29.92F

$$

VAZ055>057-251700-
NORTH AND CENTRAL PIEDMONT

CITY           SKY/WX    TMP DP  RH WIND       PRES   REMARKS
FREDERICKSBRG* LGT RAIN  50  28  42 NE7       29.93F
STAFFORD*      LGT RAIN  48  30  48 NE5       29.97F

$$

NCZ024-NYZ072-PAZ021-071-VAZ022-071-251700-
OTHER REGIONAL OBSERVATIONS

CITY           SKY/WX    TMP DP  RH WIND       PRES   REMARKS
NEW YORK CITY  SUNNY     51  22  31 VRB3      29.87F
PHILADELPHIA   CLOUDY    49  23  36 SW9       29.91F
PITTSBURGH     CLOUDY    42  35  76 E5        29.89F
ROANOKE        LGT RAIN  46  38  73 SE5       29.94R
RICHMOND       LGT RAIN  50  38  63 E6        29.93F
RALEIGH        LGT RAIN  56  50  80 SW9       29.89F

$$

ANZ530>537-251700-
MARINE OBSERVATIONS

STATION/POSITION TIME  TEMP    WIND        PRES
                       AIR SEA DIR/SP/G
                 (UTC) (F)     (DEG/KT/KT) (MB)
THOMAS PT LIGHT  1600   46 52  180/ 12/ 13 1014.4F
BALT KEY BRIDGE  1500   45     240/  6/  7 1014.4F
COVE POINT       1500   45     180/  5/  7 1015.8F
LEWISETTA        1500   50 56              1014.5F
SOLOMONS ISLAND  1500      54                N/A
PINEY POINT      1500          120/  7/  8   N/A

$$




USA.gov is the U.S. government's official web portal to all federal, state and local government web resources and services.